Location: Betz
(49.1556°N, 2.9558°E)
Time: 12:46:00
(UTC+00:00)

GENESIS II - Pass Details

Date: 18 September 2019
Orbit: 480 x 550 km, 64.5° (Epoch: 15 October)

Event Time Altitude Azimuth Distance (km) Brightness Sun altitude
Rises 19:34:34 0° 321° (NW) 2,732 9.0 -16.5°
Reaches altitude 10° 19:36:49 10° 325° (NW) 1,834 7.9 -16.9°
Maximum altitude 19:40:54 61° 47° (NE) 627 4.4 -17.5°
Enters shadow 19:42:08 40° 108° (ESE) 812 4.6 -17.7°
